Tracking 19146 objects as of 24-Apr-2018
HD Live streaming from Space Station
objects crossing your sky now

ERS 2 DEB

Track ERS 2 DEB now!
10-day predictions


NORAD ID: 35393
Int'l Code: 1995-021G
Perigee: 758.4 km
Apogee: 764.5 km
Inclination: 98.2 °
Period: 99.9 minutes
Semi major axis: 7132 km
RCS: 0.0072 m2 (small)
Launch date: April 21, 1995
Source: European Space Agency (ESA)
Launch site: FRENCH GUIANA (FRGUI)

Note: This is SATELLITE DEBRIS
aabbcc
Your satellite tracking list
Your tracking list is empty




NASA's NSSDC Master Catalog

Two Line Element Set (TLE):
1 35393U 95021G   18113.92976150 +.00000398 +00000-0 +13593-3 0  9997
2 35393 098.1805 102.7041 0004241 333.1600 056.4249 14.41271512772383
Source of the keplerian elements: AFSPC